| time (UTC) | temp F | wind direction | speed MPH | gust MPH | rain 1hr in | rain 24hr in | rain mn in | humidity % | barometer mb |
| 20260831071518 | 54 | 140 | 8.0 | 9.0 | 0.00 | 0.00 | 0.00 | 79 | 1029.8 |
| 20260831070516 | 53 | 124 | 3.0 | 4.0 | 0.00 | 0.00 | 0.00 | 81 | 1030.3 |
| 20260831065518 | 54 | 109 | 2.0 | 3.0 | 0.00 | 0.00 | 0.00 | 83 | 1030.5 |
| 20260831064519 | 54 | 67 | 4.0 | 5.0 | 0.00 | 0.00 | 0.00 | 83 | 1030.7 |
| 20260831063539 | 54 | 67 | 6.0 | 7.0 | 0.00 | 0.00 | 0.00 | 83 | 1030.9 |
| 20260831062519 | 54 | 51 | 6.0 | 7.0 | 0.00 | 0.00 | 0.00 | 82 | 1031.0 |
| 20260831061517 | 55 | 37 | 6.0 | 7.0 | 0.00 | 0.00 | 0.00 | 81 | 1031.0 |
| 20260831060538 | 55 | 21 | 6.0 | 8.0 | 0.00 | 0.00 | 0.00 | 78 | 1031.0 |
| 20260831055538 | 54 | 2 | 6.0 | 7.0 | 0.00 | 0.00 | 0.00 | 80 | 1031.2 |
| 20260831054518 | 54 | 1 | 3.0 | 4.0 | 0.00 | 0.00 | 0.00 | 81 | 1030.9 |
| 20260831053619 | 55 | 336 | 3.0 | 5.0 | 0.00 | 0.00 | 0.00 | 77 | 1030.4 |
| 20260831052518 | 54 | 288 | 4.0 | 5.0 | 0.00 | 0.00 | 0.00 | 80 | 1030.2 |
| 20260831051519 | 54 | 242 | 4.0 | 5.0 | 0.00 | 0.00 | 0.00 | 80 | 1030.0 |
| 20260831050519 | 55 | 205 | 3.0 | 3.0 | 0.00 | 0.00 | 0.00 | 78 | 1030.2 |
| 20260831045519 | 56 | 217 | 1.0 | 2.0 | 0.00 | 0.00 | 0.00 | 76 | 1030.0 |
| 20260831044519 | 58 | 56 | 5.0 | 7.0 | 0.00 | 0.00 | 0.00 | 68 | 1029.9 |
| 20260831043558 | 57 | 47 | 7.0 | 11.0 | 0.00 | 0.00 | 0.00 | 68 | 1029.9 |
| 20260831042520 | 55 | 32 | 6.0 | 9.0 | 0.00 | 0.00 | 0.00 | 76 | 1029.9 |
| 20260831041701 | 55 | 22 | 8.0 | 11.0 | 0.00 | 0.00 | 0.00 | 80 | 1029.9 |
| 20260831040519 | 55 | 3 | 11.0 | 18.0 | 0.00 | 0.00 | 0.00 | 79 | 1029.9 |
| 20260831035519 | 56 | 358 | 9.0 | 13.0 | 0.00 | 0.00 | 0.00 | 75 | 1029.7 |
| 20260831034520 | 56 | 333 | 6.0 | 9.0 | 0.00 | 0.00 | 0.00 | 73 | 1029.5 |
| 20260831033559 | 56 | 355 | 6.0 | 10.0 | 0.00 | 0.00 | 0.00 | 69 | 1029.4 |
| 20260831032521 | 56 | 331 | 4.0 | 7.0 | 0.00 | 0.00 | 0.00 | 71 | 1029.2 |
| 20260831031516 | 59 | 347 | 3.0 | 6.0 | 0.00 | 0.00 | 0.00 | 64 | 1029.0 |
| 20260831030521 | 59 | 22 | 4.0 | 7.0 | 0.00 | 0.00 | 0.00 | 62 | 1028.7 |
| 20260831025521 | 60 | 29 | 5.0 | 8.0 | 0.00 | 0.00 | 0.00 | 61 | 1028.5 |
| 20260831024541 | 60 | 31 | 6.0 | 9.0 | 0.00 | 0.00 | 0.00 | 61 | 1028.2 |
| 20260831023517 | 60 | 31 | 6.0 | 9.0 | 0.00 | 0.00 | 0.00 | 62 | 1028.2 |
| 20260831022518 | 61 | 26 | 6.0 | 9.0 | 0.00 | 0.00 | 0.00 | 61 | 1028.0 |
| 20260831021518 | 61 | 341 | 4.0 | 7.0 | 0.00 | 0.00 | 0.00 | 59 | 1027.9 |
| 20260831020518 | 60 | 8 | 5.0 | 8.0 | 0.00 | 0.00 | 0.00 | 59 | 1027.8 |
| 20260831015522 | 61 | 49 | 3.0 | 4.0 | 0.00 | 0.00 | 0.00 | 61 | 1027.6 |
| 20260831014522 | 62 | 52 | 1.0 | 3.0 | 0.00 | 0.00 | 0.00 | 58 | 1027.5 |
| 20260831013523 | 63 | 28 | 2.0 | 3.0 | 0.00 | 0.00 | 0.00 | 56 | 1027.4 |
| 20260831012523 | 65 | 358 | 2.0 | 4.0 | 0.00 | 0.00 | 0.00 | 52 | 1027.1 |
| 20260831011523 | 67 | 323 | 3.0 | 5.0 | 0.00 | 0.00 | 0.00 | 50 | 1027.0 |
| 20260831010524 | 68 | 9 | 2.0 | 3.0 | 0.00 | 0.00 | 0.00 | 51 | 1026.8 |
| 20260831005523 | 69 | 70 | 3.0 | 4.0 | 0.00 | 0.00 | 0.00 | 50 | 1026.8 |
| 20260831004519 | 70 | 67 | 3.0 | 5.0 | 0.00 | 0.00 | 0.00 | 47 | 1026.8 |
| 20260831003520 | 71 | 57 | 5.0 | 7.0 | 0.00 | 0.00 | 0.00 | 44 | 1026.8 |
| 20260831002520 | 71 | 11 | 5.0 | 8.0 | 0.00 | 0.00 | 0.00 | 42 | 1026.8 |
| 20260831001540 | 72 | 24 | 5.0 | 8.0 | 0.00 | 0.00 | 0.00 | 41 | 1026.9 |
| 20260831000541 | 72 | 345 | 8.0 | 10.0 | 0.00 | 0.00 | 0.00 | 40 | 1026.7 |
| 20260830235517 | 72 | 11 | 8.0 | 12.0 | 0.00 | 0.00 | 0.00 | 40 | 1026.7 |
| 20260830234520 | 73 | 318 | 6.0 | 9.0 | 0.00 | 0.00 | 0.00 | 41 | 1026.8 |
| 20260830233521 | 73 | 240 | 6.0 | 9.0 | 0.00 | 0.00 | 0.00 | 32 | 1026.7 |
| 20260830232518 | 74 | 225 | 7.0 | 10.0 | 0.00 | 0.00 | 0.00 | 31 | 1026.5 |
| 20260830231521 | 74 | 239 | 7.0 | 10.0 | 0.00 | 0.00 | 0.00 | 31 | 1026.5 |
| 20260830230559 | 74 | 243 | 7.0 | 10.0 | 0.00 | 0.00 | 0.00 | 34 | 1026.6 |
| 20260830225541 | 74 | 270 | 5.0 | 7.0 | 0.00 | 0.00 | 0.00 | 32 | 1026.6 |
| 20260830224521 | 74 | 269 | 6.0 | 10.0 | 0.00 | 0.00 | 0.00 | 31 | 1026.6 |
| 20260830223522 | 75 | 266 | 4.0 | 9.0 | 0.00 | 0.00 | 0.00 | 30 | 1026.7 |
| 20260830222519 | 75 | 224 | 6.0 | 13.0 | 0.00 | 0.00 | 0.00 | 32 | 1026.6 |
| 20260830221516 | 75 | 250 | 6.0 | 12.0 | 0.00 | 0.00 | 0.00 | 32 | 1026.6 |
| 20260830220536 | 75 | 250 | 4.0 | 10.0 | 0.00 | 0.00 | 0.00 | 30 | 1026.7 |
| 20260830215517 | 75 | 286 | 6.0 | 12.0 | 0.00 | 0.00 | 0.00 | 30 | 1026.7 |
| 20260830214516 | 75 | 270 | 5.0 | 10.0 | 0.00 | 0.00 | 0.00 | 30 | 1026.7 |
| 20260830213517 | 76 | 290 | 7.0 | 11.0 | 0.00 | 0.00 | 0.00 | 31 | 1026.8 |
| 20260830212518 | 74 | 262 | 8.0 | 14.0 | 0.00 | 0.00 | 0.00 | 33 | 1026.8 |
| 20260830211517 | 74 | 237 | 6.0 | 13.0 | 0.00 | 0.01 | 0.00 | 33 | 1026.7 |
| 20260830210517 | 74 | 230 | 8.0 | 13.0 | 0.00 | 0.01 | 0.00 | 34 | 1026.8 |
| 20260830205518 | 74 | 240 | 9.0 | 18.0 | 0.00 | 0.01 | 0.00 | 34 | 1026.7 |
| 20260830204518 | 73 | 241 | 10.0 | 20.0 | 0.00 | 0.01 | 0.00 | 34 | 1026.7 |
| 20260830203518 | 73 | 239 | 9.0 | 15.0 | 0.00 | 0.01 | 0.00 | 35 | 1026.8 |
| 20260830202518 | 73 | 255 | 8.0 | 13.0 | 0.00 | 0.01 | 0.00 | 35 | 1026.9 |
| 20260830201518 | 73 | 270 | 9.0 | 16.0 | 0.00 | 0.01 | 0.00 | 35 | 1026.9 |
| 20260830200518 | 73 | 259 | 7.0 | 12.0 | 0.00 | 0.01 | 0.00 | 34 | 1027.0 |
| 20260830195519 | 73 | 286 | 4.0 | 8.0 | 0.00 | 0.01 | 0.00 | 37 | 1027.1 |
| 20260830194519 | 73 | 286 | 6.0 | 9.0 | 0.00 | 0.01 | 0.00 | 37 | 1027.2 |
| 20260830193519 | 73 | 324 | 4.0 | 9.0 | 0.00 | 0.01 | 0.00 | 36 | 1027.3 |
| 20260830192519 | 73 | 283 | 6.0 | 10.0 | 0.00 | 0.01 | 0.00 | 36 | 1027.4 |
| 20260830191559 | 74 | 259 | 6.0 | 9.0 | 0.00 | 0.01 | 0.00 | 38 | 1027.5 |
| 20260830190600 | 73 | 248 | 8.0 | 14.0 | 0.00 | 0.01 | 0.00 | 40 | 1027.6 |
| 20260830185537 | 72 | 239 | 6.0 | 11.0 | 0.00 | 0.01 | 0.00 | 41 | 1027.7 |
| 20260830184517 | 72 | 214 | 8.0 | 13.0 | 0.00 | 0.01 | 0.00 | 41 | 1027.8 |
| 20260830183520 | 72 | 248 | 5.0 | 10.0 | 0.00 | 0.01 | 0.00 | 40 | 1028.0 |
| 20260830182520 | 71 | 225 | 4.0 | 9.0 | 0.00 | 0.01 | 0.00 | 42 | 1028.1 |
| 20260830181517 | 70 | 164 | 8.0 | 14.0 | 0.00 | 0.01 | 0.00 | 45 | 1028.3 |
| 20260830180518 | 68 | 180 | 8.0 | 12.0 | 0.00 | 0.01 | 0.00 | 47 | 1028.4 |
| 20260830175518 | 68 | 202 | 7.0 | 12.0 | 0.00 | 0.01 | 0.00 | 46 | 1028.5 |
| 20260830174518 | 68 | 183 | 8.0 | 13.0 | 0.00 | 0.01 | 0.00 | 48 | 1028.6 |
| 20260830173519 | 68 | 219 | 9.0 | 14.0 | 0.00 | 0.01 | 0.00 | 46 | 1028.7 |
| 20260830172519 | 68 | 193 | 10.0 | 13.0 | 0.00 | 0.01 | 0.00 | 46 | 1028.7 |
| 20260830171519 | 68 | 190 | 8.0 | 14.0 | 0.00 | 0.01 | 0.00 | 47 | 1028.8 |
| 20260830170516 | 66 | 186 | 8.0 | 11.0 | 0.00 | 0.01 | 0.00 | 51 | 1028.9 |
| 20260830165516 | 65 | 194 | 8.0 | 11.0 | 0.00 | 0.01 | 0.00 | 53 | 1028.7 |
| 20260830164522 | 65 | 199 | 8.0 | 9.0 | 0.00 | 0.01 | 0.00 | 52 | 1028.8 |
| 20260830163522 | 65 | 203 | 7.0 | 9.0 | 0.00 | 0.01 | 0.00 | 53 | 1028.6 |
| 20260830162517 | 64 | 212 | 6.0 | 9.0 | 0.00 | 0.01 | 0.00 | 53 | 1028.7 |
| 20260830161517 | 63 | 219 | 4.0 | 7.0 | 0.00 | 0.01 | 0.00 | 56 | 1028.6 |
| 20260830160517 | 62 | 201 | 6.0 | 9.0 | 0.00 | 0.01 | 0.00 | 60 | 1028.5 |
| 20260830155517 | 62 | 192 | 6.0 | 8.0 | 0.00 | 0.01 | 0.00 | 59 | 1028.5 |
| 20260830154558 | 62 | 180 | 6.0 | 9.0 | 0.00 | 0.01 | 0.00 | 60 | 1028.5 |
| 20260830153517 | 62 | 180 | 6.0 | 8.0 | 0.00 | 0.01 | 0.00 | 61 | 1028.4 |
| 20260830152518 | 63 | 183 | 6.0 | 10.0 | 0.00 | 0.01 | 0.00 | 56 | 1028.4 |
| 20260830151518 | 62 | 190 | 2.0 | 5.0 | 0.00 | 0.01 | 0.00 | 53 | 1028.4 |
| 20260830150518 | 62 | 160 | 4.0 | 6.0 | 0.00 | 0.01 | 0.00 | 57 | 1028.5 |
| 20260830145518 | 63 | 164 | 6.0 | 7.0 | 0.00 | 0.01 | 0.00 | 56 | 1028.3 |
| 20260830144558 | 63 | 178 | 1.0 | 4.0 | 0.00 | 0.01 | 0.00 | 49 | 1028.4 |
| 20260830143519 | 62 | 179 | 5.0 | 7.0 | 0.00 | 0.01 | 0.00 | 52 | 1028.4 |
| 20260830142519 | 60 | 152 | 5.0 | 7.0 | 0.00 | 0.01 | 0.00 | 58 | 1028.5 |
| 20260830141519 | 59 | 146 | 6.0 | 9.0 | 0.00 | 0.01 | 0.00 | 65 | 1028.5 |
| 20260830140539 | 59 | 150 | 5.0 | 7.0 | 0.00 | 0.01 | 0.00 | 63 | 1028.6 |
| 20260830135519 | 59 | 152 | 5.0 | 8.0 | 0.00 | 0.01 | 0.00 | 62 | 1028.6 |
| 20260830134520 | 59 | 163 | 6.0 | 9.0 | 0.00 | 0.01 | 0.00 | 62 | 1028.6 |
| 20260830133517 | 60 | 161 | 8.0 | 11.0 | 0.00 | 0.01 | 0.00 | 60 | 1028.5 |
| 20260830132520 | 61 | 145 | 7.0 | 10.0 | 0.00 | 0.01 | 0.00 | 55 | 1028.3 |